Probability
0 0 0 0 0 0 0 0 0 0 0 0 0 0 0 0 0 0 0 0 0 0 0 0 0 0 0 0 0 0 0 0 0 0 0 0 0 0
0 0 0 0 0 0 0 0 0 0 0 0 0 0 0 0 0 0 0 0 0 0 0 0 0 0 0 0 0 0 0 0 0 0 0 0 0 0
0 0 0 0 0 0 0 0 0 0 0 0 0 0 0 0 0 0 0 0 0 0 0 0 0 0 0 0 0 0 0 0 0 0 0 0 0 0
0 0 0 0 0 0 0 0 0 0 0 0 0 0 0 0 0 0 0 0 0 0 0 0 0 0 0 0 0 0 0 0 0 0 0 0 0 0
0 0 0 0 0 0 0 0 0 0 0 0 0 0 0 0 0 0 0 0 0 0 0 0 0 0 0 0 0 0 0 0 0 0 0 0 0 0
0 0 0 0 0 0 0 0 0 0 0 0 0 0 0 0 0 0 0 0 0 0 0 0 0 0 0 0 0 0 0 0 0 0 0 0 0 0
0 0 0 0 0 0 0 0 0 0 0 0 0 0 0 0 0 0 0 0 0 0 0 0 0 0 0 0 0 0 0 0 0 0 0 0 0 0
0 0 0 0 0 0 0 0 0 0 0 0 0 0 0 0 0 0 0 0 0 0 0 0 0 0 0 0 0 0 0 0 0 0 0 0 0 0
0 0 0 0 0 0 0 0 0 0 0 0 0 0 0 0 0 0 0 0 0 0 0 0 0 0 0 0 0 0 0 0 0 0 0 0 0 0
0 0 0 0 0 0 0 0 0 0 0 0 0 0 0 0 0 0 0 0 0 0 0 0 0 0 0 0 0 0 0 0 0 0 0 0 0 0
0 0 0 0 0 0 0 0 0 0 0 0 0 0 0 0 0 0 0 0 0 0 0 0 0 0 0 0 0 0 0 0 0 0 0 0 0 0
0 0 0 0 0 0 0 0 0 0 0 0 0 0 0 0 0 0 0 0 0 0 0 0 0 0 0 0 0 0 0 0 0 0 0 0 0 0
0 0 0 0 0 0 0 0 0 0 0 0 0 0 0 0 0 0 0 0 0 0 0 0 0 0 0 0 0 0 0 0 0 0 0 0 0 0
0 0 0 0 0 0 0 0 0 0 0 0 0 0 0 0 0 0 0 0 0 0 0 0 0 0 0 0 0 0 0 0 0 0 0 0 0 0
0 0 0 0 0 0 0 0 0 0 0 0 0 0 0 0 0 0 0 0 0 0 0 0 0 0 0 0 0 0 0 0 0 0 0 0 0 0
0 0 0 0 0 0 0 0 0 0 0 0 0 0 0 0 0 0 0 0 0 0 0 0 0 0 0 0 0 0 0 0 0 0 0 0 0 0
0 0 0 0 0 0 0 0 0 0 0 0 0 0 0 0 0 0 0 0 0 0 0 0 0 0 0 0 0 0 0 0 0 0 0 0 0 0
0 0 0 0 0 0 0 0 0 0 0 0 0 0 0 0 0 0 0 0 0 0 0 0 0 0 0 0 0 0 0 0 0 0 0 0 0 0
0 0 0 0 0 0 0 0 0 0 0 0 0 0 0 0 0 0 0 0 0 0 0 0 0 0 0 0 0 0 0 0 0 0 0 0 0 0
0 0 0 0 0 0 0 0 0 0 0 0 0 0 0 0 0 0 0 0 0 0 0 0 0 0 0 0 0 0 0 0 0 0 0 0 0 0
0 0 0 0 0 0 0 0 0 0 0 0 0 0 0 0 0 0 0 0 0 0 0 0 0 0 0 0 0 0 0 0 0 0 0 0 0 0
0 0 0 0 0 0 0 0 0 0 0 0 0 0 0 0 0 0 0 0 0 0 0 0 0 0 0 0 0 0 0 0 0 0 0 0 0 0
0 0 0 0 0 0 0 0 0 0 0 0 0 0 0 0 0 0 0 0 0 0 0 0 0 0 0 0 0 0 0 0 0 0 0 0 0 0
Wind_Speed
11 10 7 5 5 4 4 5 6 4 5 4 2 3 3 3 4 3 3 4 4 4 4 5 5 6 7 8 8 9 10 11 11 12 14 15 16 17
9 10 8 5 5 4 5 4 4 5 4 3 3 2 3 3 4 3 3 3 3 4 4 4 5 5 6 7 8 8 9 10 11 13 14 15 16 17
10 11 11 8 6 5 5 4 4 4 4 2 1 1 2 3 2 1 1 1 1 4 4 4 4 5 6 7 7 8 9 10 11 12 13 14 15 16
13 12 11 8 9 7 6 6 5 4 4 4 2 2 2 3 2 1 1 0 1 3 3 3 4 5 6 6 7 7 8 9 10 11 12 13 14 15
13 13 12 11 10 7 7 6 5 4 3 4 2 2 1 1 2 1 0 0 1 2 2 3 4 4 6 6 6 7 8 9 10 11 12 13 14 15
11 12 12 13 12 11 8 8 6 5 4 4 2 2 2 1 2 1 0 0 1 1 2 3 4 4 6 6 6 7 8 8 10 11 11 12 13 14
10 11 11 12 13 11 9 8 8 6 5 4 3 2 2 2 2 2 1 0 1 1 2 2 2 2 3 5 6 7 8 9 10 11 11 12 12 13
11 9 9 12 14 15 14 13 12 9 8 6 4 4 4 3 3 2 2 1 2 1 1 2 1 2 2 2 6 7 8 9 10 11 11 12 12 13
11 10 7 9 13 11 12 12 10 10 11 8 6 6 5 5 5 4 3 2 2 1 0 2 1 2 2 3 7 7 8 10 10 11 11 12 12 12
10 11 10 10 11 12 10 8 6 5 6 5 6 5 4 5 6 5 4 3 1 1 1 1 2 2 3 3 6 8 9 10 10 11 11 11 12 12
9 10 11 10 15 17 13 10 8 5 6 10 9 9 10 9 7 5 4 3 0 1 1 0 1 3 3 2 4 8 10 10 11 11 11 11 12 11
7 8 12 13 16 18 13 12 11 8 8 8 8 8 7 7 8 5 5 3 2 1 1 0 0 1 3 3 2 3 4 8 11 10 11 12 12 6
7 7 8 16 17 18 15 11 13 12 9 8 7 5 4 3 3 2 2 4 3 2 1 1 0 0 1 3 3 3 3 4 4 6 9 12 12 8
8 7 8 15 16 16 13 14 18 14 8 7 6 5 4 3 2 3 3 3 2 3 2 2 1 1 1 2 3 4 4 3 3 4 4 9 9 10
6 10 12 15 14 12 15 18 16 9 8 7 6 5 3 4 4 3 3 4 4 2 1 1 1 1 1 2 2 3 3 4 3 4 5 5 4 4
8 11 14 15 11 12 13 11 7 7 8 7 6 5 4 4 3 3 2 2 2 2 3 2 1 1 1 2 2 3 3 3 4 5 5 4 4 3
9 7 6 7 7 7 6 6 6 7 7 6 7 6 5 4 3 2 2 2 2 0 2 3 2 1 2 2 1 2 3 3 4 5 5 5 4 4
11 8 8 8 8 8 8 7 6 7 7 7 7 6 6 5 4 3 2 2 2 1 0 1 2 3 3 2 3 2 2 2 4 4 3 4 5 4
8 8 8 8 8 8 7 7 6 7 7 7 7 6 6 5 5 4 3 2 1 1 0 0 1 1 1 2 4 2 2 3 4 3 3 3 4 5
6 8 8 8 8 8 8 7 7 8 7 7 7 6 6 6 5 4 3 3 2 1 0 0 0 0 1 2 2 3 4 3 2 3 3 3 3 6
7 7 7 8 8 8 8 8 8 8 8 7 7 7 6 6 5 4 4 4 3 2 1 1 2 2 0 0 1 3 3 5 4 2 3 3 3 3
7 7 7 8 8 9 8 8 8 8 8 7 7 6 6 6 6 5 4 4 2 2 1 1 1 1 1 1 1 2 3 5 6 7 5 4 2 3
7 8 8 8 8 8 8 9 10 8 7 7 7 6 6 5 5 4 4 3 3 2 2 1 1 1 1 1 1 1 3 4 4 4 4 8 8 6
Wind_Direction
190 188 186 187 182 174 162 158 157 180 217 214 203 195 187 183 192 190 208 239 255 271 282 292 300 307 310 315 319 322 324 326 327 325 324 325 326 327
186 188 191 186 181 176 174 171 164 167 197 203 199 179 174 177 184 181 207 227 249 269 280 291 300 306 313 316 318 320 322 325 326 325 324 325 326 327
187 192 194 183 181 180 175 171 169 157 177 194 156 147 160 168 165 172 182 200 247 271 282 297 304 310 314 317 318 319 323 325 325 324 324 327 328 328
191 190 192 184 185 181 179 180 176 168 161 180 170 155 165 170 162 163 168 201 260 281 291 305 312 317 321 321 323 324 325 326 325 324 325 327 328 330
191 191 190 184 189 183 181 180 173 163 151 155 169 148 141 134 127 104 82 355 316 310 314 323 318 327 333 331 330 329 328 326 326 327 327 328 330 330
191 192 191 190 190 183 183 180 167 159 148 147 157 151 141 125 129 144 319 314 318 342 331 328 331 341 344 340 335 331 330 329 329 329 329 330 330 329
189 193 193 189 185 183 180 176 170 167 159 160 168 157 165 162 178 161 185 298 302 348 321 318 330 329 329 332 332 332 336 336 334 333 332 332 332 331
189 190 186 183 181 181 178 174 174 174 176 174 180 182 187 175 151 151 145 124 281 325 340 303 344 306 304 303 331 342 342 340 338 336 334 334 333 332
186 182 181 182 177 177 172 168 174 178 176 174 175 184 176 174 159 157 165 170 209 273 20 290 325 299 302 322 335 346 347 344 341 338 336 335 335 337
184 181 178 176 176 167 160 156 156 164 167 161 163 165 157 156 162 161 154 127 90 7 54 289 314 301 313 314 327 344 347 347 344 341 339 338 338 339
180 178 175 174 169 162 158 153 147 140 128 130 126 125 126 130 134 121 120 110 99 293 37 85 303 311 312 306 322 341 345 346 347 345 342 339 339 343
172 174 175 172 168 165 164 161 161 159 140 124 113 109 110 120 125 137 149 138 133 226 247 119 309 345 320 307 312 323 333 337 343 343 343 340 340 344
172 175 176 169 167 169 168 171 166 152 144 135 125 116 109 110 110 105 122 141 147 186 199 137 153 323 273 301 311 315 327 323 325 328 337 338 340 343
173 169 166 166 166 167 167 156 146 140 138 137 135 137 136 131 120 106 95 87 110 163 182 157 166 193 228 294 295 313 319 313 320 323 324 329 333 335
162 157 154 156 156 160 156 149 146 145 146 147 152 152 145 141 126 106 82 76 61 50 82 139 176 207 205 233 279 303 314 313 322 325 321 321 315 321
139 139 140 142 141 142 146 149 150 154 154 153 147 138 131 130 127 122 116 102 77 24 0 356 292 202 215 247 251 278 290 299 314 322 320 313 313 316
139 132 138 142 142 141 143 143 145 147 147 142 141 141 139 134 127 121 115 104 103 91 341 346 350 333 240 218 260 277 295 303 307 321 324 321 314 319
143 149 154 156 156 156 155 152 153 155 151 146 145 147 146 145 139 126 115 120 126 143 220 328 352 6 8 324 231 263 296 297 313 318 319 317 317 321
149 158 161 162 158 155 155 155 155 152 149 148 149 150 146 145 144 143 138 126 124 140 175 190 26 51 27 326 309 275 268 305 318 320 318 309 305 314
158 161 162 159 155 153 153 150 146 146 147 148 148 149 149 148 148 151 155 151 151 144 84 347 228 212 221 256 283 298 304 303 307 313 315 311 304 311
161 158 155 154 152 150 150 149 149 150 150 149 149 149 152 149 150 154 154 148 139 146 176 246 263 309 321 55 337 316 318 331 334 316 316 323 329 340
157 154 151 151 151 149 149 148 147 147 149 148 149 150 151 151 153 154 155 155 158 162 182 252 314 16 57 70 338 316 327 339 347 355 1 8 359 347
152 151 149 149 149 148 149 149 149 149 151 150 149 151 151 150 150 150 151 150 144 136 120 83 26 34 32 19 353 336 344 349 351 357 359 360 4 356